StationID,Date,MaxTemp,MinTemp,Precipitation,Snowfall,SnowDepth
"USC00508648","1964-07-01",,,,0.00,0.00
"USC00508648","1964-07-02",,,,0.00,0.00
"USC00508648","1964-07-03",,,,0.00,0.00
"USC00508648","1964-07-04",,,,0.00,0.00
"USC00508648","1964-07-05",,,,0.00,0.00
"USC00508648","1964-07-06",,,,0.00,0.00
"USC00508648","1964-07-07",,,,0.00,0.00
"USC00508648","1964-07-08",,,,0.00,0.00
"USC00508648","1964-07-09",62.96,46.94,3.00,0.00,0.00
"USC00508648","1964-07-10",59.00,48.02,5.00,0.00,0.00
"USC00508648","1964-07-11",51.98,44.06,104.00,0.00,0.00
"USC00508648","1964-07-12",55.94,44.96,3.00,0.00,0.00
"USC00508648","1964-07-13",62.06,46.94,0.00,0.00,0.00
"USC00508648","1964-07-14",69.08,46.04,0.00,0.00,0.00
"USC00508648","1964-07-15",64.94,44.06,0.00,0.00,0.00
"USC00508648","1964-07-16",69.98,46.94,0.00,0.00,0.00
"USC00508648","1964-07-17",68.00,48.02,0.00,0.00,0.00
"USC00508648","1964-07-18",62.96,46.04,0.00,0.00,0.00
"USC00508648","1964-07-19",66.02,44.06,8.00,0.00,0.00
"USC00508648","1964-07-20",68.00,46.04,0.00,0.00,0.00
"USC00508648","1964-07-21",66.92,46.04,0.00,0.00,0.00
"USC00508648","1964-07-22",66.02,46.04,0.00,0.00,0.00
"USC00508648","1964-07-23",55.94,46.04,0.00,0.00,0.00
"USC00508648","1964-07-24",57.02,44.96,0.00,0.00,0.00
"USC00508648","1964-07-25",66.02,46.94,0.00,0.00,0.00
"USC00508648","1964-07-26",68.00,48.92,0.00,0.00,0.00
"USC00508648","1964-07-27",62.96,46.04,0.00,0.00,0.00
"USC00508648","1964-07-28",71.06,50.00,25.00,0.00,0.00
"USC00508648","1964-07-29",71.96,53.96,0.00,0.00,0.00
"USC00508648","1964-07-30",62.06,51.98,0.00,0.00,0.00
"USC00508648","1964-07-31",60.98,48.92,36.00,0.00,0.00
"USC00508648","1964-08-01",59.00,48.92,38.00,0.00,0.00
"USC00508648","1964-08-02",57.92,46.94,0.00,0.00,0.00
"USC00508648","1964-08-03",57.02,50.00,58.00,0.00,0.00
"USC00508648","1964-08-04",59.00,46.04,43.00,0.00,0.00
"USC00508648","1964-08-05",60.08,44.96,25.00,0.00,0.00
"USC00508648","1964-08-06",57.92,44.96,0.00,0.00,0.00
"USC00508648","1964-08-07",66.02,46.94,0.00,0.00,0.00
"USC00508648","1964-08-08",62.96,48.02,0.00,0.00,0.00
"USC00508648","1964-08-09",60.08,44.96,0.00,0.00,0.00
"USC00508648","1964-08-10",66.02,46.94,0.00,0.00,0.00
"USC00508648","1964-08-11",60.98,48.92,3.00,0.00,0.00
"USC00508648","1964-08-12",60.98,48.02,0.00,0.00,0.00
"USC00508648","1964-08-13",62.96,44.96,0.00,0.00,0.00
"USC00508648","1964-08-14",64.04,42.08,0.00,0.00,0.00
"USC00508648","1964-08-15",57.92,44.96,3.00,0.00,0.00
"USC00508648","1964-08-16",60.08,48.02,20.00,0.00,0.00
"USC00508648","1964-08-17",57.92,48.92,0.00,0.00,0.00
"USC00508648","1964-08-18",53.96,46.04,3.00,0.00,0.00
"USC00508648","1964-08-19",50.00,44.06,36.00,0.00,0.00
"USC00508648","1964-08-20",53.06,44.06,5.00,0.00,0.00
"USC00508648","1964-08-21",55.94,42.08,15.00,0.00,0.00
"USC00508648","1964-08-22",55.04,42.98,18.00,0.00,0.00
"USC00508648","1964-08-23",59.00,44.96,18.00,0.00,0.00
"USC00508648","1964-08-24",53.96,44.06,20.00,0.00,0.00
"USC00508648","1964-08-25",57.02,39.92,0.00,0.00,0.00
"USC00508648","1964-08-26",62.06,44.06,0.00,0.00,0.00
"USC00508648","1964-08-27",55.04,37.94,0.00,0.00,0.00
"USC00508648","1964-08-28",55.04,42.98,23.00,0.00,0.00
"USC00508648","1964-08-29",59.00,39.92,0.00,0.00,0.00
"USC00508648","1964-08-30",55.94,44.06,46.00,0.00,0.00
"USC00508648","1964-08-31",60.08,44.96,0.00,0.00,0.00
"USC00508648","1964-09-01",59.00,42.08,0.00,0.00,0.00
"USC00508648","1964-09-02",59.00,42.98,0.00,0.00,0.00
"USC00508648","1964-09-03",60.08,46.04,0.00,0.00,0.00
"USC00508648","1964-09-04",59.00,44.06,8.00,0.00,0.00
"USC00508648","1964-09-05",,,0.00,0.00,0.00
"USC00508648","1964-09-06",55.94,37.04,0.00,0.00,0.00
"USC00508648","1964-09-07",60.08,42.08,0.00,0.00,0.00
"USC00508648","1964-09-08",57.92,46.94,0.00,0.00,0.00
"USC00508648","1964-09-09",60.08,42.98,0.00,0.00,0.00
"USC00508648","1964-09-10",55.94,42.98,0.00,0.00,0.00
"USC00508648","1964-09-11",55.94,41.00,0.00,0.00,0.00
"USC00508648","1964-09-12",57.02,42.08,0.00,0.00,0.00
"USC00508648","1964-09-13",53.96,44.06,0.00,0.00,0.00
"USC00508648","1964-09-14",53.96,44.96,3.00,0.00,0.00
"USC00508648","1964-09-15",57.02,42.98,5.00,0.00,0.00
"USC00508648","1964-09-16",51.08,44.06,41.00,0.00,0.00
"USC00508648","1964-09-17",55.04,42.08,0.00,0.00,0.00
"USC00508648","1964-09-18",57.02,44.96,0.00,0.00,0.00
"USC00508648","1964-09-19",51.98,42.08,18.00,0.00,0.00
"USC00508648","1964-09-20",55.94,41.00,0.00,0.00,0.00
"USC00508648","1964-09-21",51.08,42.08,5.00,0.00,0.00
"USC00508648","1964-09-22",53.96,41.00,0.00,0.00,0.00
"USC00508648","1964-09-23",51.98,42.08,0.00,0.00,0.00
"USC00508648","1964-09-24",48.92,35.96,0.00,0.00,0.00
"USC00508648","1964-09-25",48.02,42.08,0.00,0.00,0.00
"USC00508648","1964-09-26",48.02,37.04,51.00,0.00,0.00
"USC00508648","1964-09-27",48.92,35.96,0.00,0.00,0.00
"USC00508648","1964-09-28",48.02,37.94,0.00,0.00,0.00
"USC00508648","1964-09-29",48.92,37.94,0.00,0.00,0.00
"USC00508648","1964-09-30",46.94,42.08,79.00,0.00,0.00
"USC00508648","1964-10-01",48.92,41.00,25.00,0.00,0.00
"USC00508648","1964-10-02",48.02,41.00,0.00,0.00,0.00
"USC00508648","1964-10-03",50.00,37.94,0.00,0.00,0.00
"USC00508648","1964-10-04",48.92,35.96,0.00,0.00,0.00
"USC00508648","1964-10-05",53.06,39.02,0.00,0.00,0.00
"USC00508648","1964-10-06",51.08,42.08,10.00,0.00,0.00
"USC00508648","1964-10-07",46.04,39.92,38.00,0.00,0.00
"USC00508648","1964-10-08",44.96,35.96,36.00,0.00,0.00
"USC00508648","1964-10-09",44.96,33.98,0.00,0.00,0.00
"USC00508648","1964-10-10",41.00,33.98,0.00,0.00,0.00
"USC00508648","1964-10-11",48.92,32.00,0.00,0.00,0.00
"USC00508648","1964-10-12",42.08,35.06,0.00,0.00,0.00
"USC00508648","1964-10-13",41.00,33.08,0.00,0.00,0.00
"USC00508648","1964-10-14",44.96,35.06,0.00,0.00,0.00
"USC00508648","1964-10-15",41.00,32.00,0.00,0.00,0.00
"USC00508648","1964-10-16",35.96,24.08,,206.00,203.00
"USC00508648","1964-10-17",28.94,17.06,51.00,74.00,279.00
"USC00508648","1964-10-18",23.00,12.02,0.00,0.00,
"USC00508648","1964-10-19",39.02,17.96,0.00,0.00,
"USC00508648","1964-10-20",44.06,37.04,0.00,0.00,
"USC00508648","1964-10-21",44.96,33.98,0.00,0.00,
"USC00508648","1964-10-22",35.96,28.04,97.00,53.00,
"USC00508648","1964-10-23",33.08,24.98,0.00,0.00,
"USC00508648","1964-10-24",28.04,17.06,0.00,0.00,
"USC00508648","1964-10-25",24.08,15.98,0.00,0.00,
"USC00508648","1964-10-26",26.06,15.98,0.00,0.00,
"USC00508648","1964-10-27",41.00,21.92,53.00,0.00,
"USC00508648","1964-10-28",32.00,21.92,0.00,0.00,
"USC00508648","1964-10-29",26.96,17.96,0.00,0.00,
"USC00508648","1964-10-30",26.06,15.08,0.00,0.00,
"USC00508648","1964-10-31",28.04,19.04,0.00,0.00,
"USC00508648","1964-11-01",24.98,12.92,0.00,0.00,
"USC00508648","1964-11-02",26.06,19.04,0.00,0.00,
"USC00508648","1964-11-03",26.06,17.06,0.00,0.00,
"USC00508648","1964-11-04",39.92,19.94,0.00,0.00,
"USC00508648","1964-11-05",35.06,26.96,56.00,66.00,203.00
"USC00508648","1964-11-06",30.02,17.06,0.00,15.00,
"USC00508648","1964-11-07",19.94,12.02,3.00,3.00,
"USC00508648","1964-11-08",35.96,15.08,0.00,0.00,
"USC00508648","1964-11-09",28.94,19.94,0.00,0.00,
"USC00508648","1964-11-10",23.00,14.00,0.00,0.00,
"USC00508648","1964-11-11",17.96,12.02,0.00,0.00,
"USC00508648","1964-11-12",15.98,8.06,0.00,0.00,
"USC00508648","1964-11-13",28.04,6.98,30.00,43.00,
"USC00508648","1964-11-14",41.00,19.04,74.00,28.00,
"USC00508648","1964-11-15",35.06,24.98,0.00,0.00,
"USC00508648","1964-11-16",41.00,33.08,0.00,0.00,
"USC00508648","1964-11-17",46.94,33.98,0.00,0.00,
"USC00508648","1964-11-18",46.04,30.92,28.00,104.00,305.00
"USC00508648","1964-11-19",33.08,28.94,292.00,508.00,762.00
"USC00508648","1964-11-20",37.94,28.94,0.00,0.00,635.00
"USC00508648","1964-11-21",32.00,21.02,0.00,0.00,610.00
"USC00508648","1964-11-22",30.92,10.04,0.00,0.00,559.00
"USC00508648","1964-11-23",32.00,17.96,0.00,0.00,559.00
"USC00508648","1964-11-24",21.02,12.92,0.00,0.00,559.00
"USC00508648","1964-11-25",15.98,10.94,0.00,0.00,559.00
"USC00508648","1964-11-26",12.92,1.04,0.00,0.00,533.00
"USC00508648","1964-11-27",3.02,-2.02,0.00,0.00,533.00
"USC00508648","1964-11-28",8.96,-2.02,0.00,0.00,508.00
"USC00508648","1964-11-29",6.98,1.04,0.00,0.00,483.00
"USC00508648","1964-11-30",6.08,-0.04,0.00,0.00,483.00
"USC00508648","1964-12-01",15.98,1.94,0.00,0.00,483.00
"USC00508648","1964-12-02",30.92,10.04,0.00,0.00,483.00
"USC00508648","1964-12-03",26.06,15.08,0.00,0.00,457.00
"USC00508648","1964-12-04",32.00,15.08,0.00,0.00,457.00
"USC00508648","1964-12-05",30.02,17.96,0.00,0.00,457.00
"USC00508648","1964-12-06",21.92,14.00,43.00,84.00,508.00
"USC00508648","1964-12-07",23.00,14.00,97.00,132.00,635.00
"USC00508648","1964-12-08",14.00,3.92,0.00,0.00,635.00
"USC00508648","1964-12-09",3.92,-11.02,0.00,0.00,610.00
"USC00508648","1964-12-10",-7.96,-18.94,0.00,0.00,584.00
"USC00508648","1964-12-11",-9.94,-23.08,0.00,0.00,559.00
"USC00508648","1964-12-12",-5.98,-20.02,0.00,0.00,533.00
"USC00508648","1964-12-13",-16.06,-22.00,0.00,0.00,533.00
"USC00508648","1964-12-14",-14.08,-22.00,0.00,0.00,508.00
"USC00508648","1964-12-15",-0.04,-14.98,15.00,64.00,533.00
"USC00508648","1964-12-16",15.08,-0.94,8.00,58.00,584.00
"USC00508648","1964-12-17",15.08,1.94,0.00,0.00,559.00
"USC00508648","1964-12-18",6.98,-0.04,0.00,0.00,559.00
"USC00508648","1964-12-19",24.98,1.94,0.00,0.00,559.00
"USC00508648","1964-12-20",15.98,5.00,0.00,0.00,533.00
"USC00508648","1964-12-21",26.06,12.92,0.00,0.00,508.00
"USC00508648","1964-12-22",30.02,6.98,0.00,0.00,508.00
"USC00508648","1964-12-23",12.02,3.02,0.00,0.00,508.00
"USC00508648","1964-12-24",17.96,1.94,0.00,0.00,508.00
"USC00508648","1964-12-25",1.94,-7.96,0.00,0.00,508.00
"USC00508648","1964-12-26",1.04,-13.00,0.00,0.00,508.00
"USC00508648","1964-12-27",-2.02,-11.02,0.00,0.00,508.00
"USC00508648","1964-12-28",8.06,-7.96,0.00,0.00,508.00
"USC00508648","1964-12-29",-2.02,-11.02,0.00,0.00,508.00
"USC00508648","1964-12-30",-0.04,-9.94,18.00,56.00,584.00
"USC00508648","1964-12-31",3.02,-13.00,0.00,0.00,559.00
"USC00508648","1965-01-01",12.02,-13.00,0.00,0.00,508.00
"USC00508648","1965-01-02",12.02,-7.96,0.00,0.00,508.00
"USC00508648","1965-01-03",1.04,-7.96,0.00,0.00,508.00
"USC00508648","1965-01-04",1.94,-5.08,0.00,0.00,508.00
"USC00508648","1965-01-05",-0.94,-7.06,0.00,0.00,508.00
"USC00508648","1965-01-06",5.00,-5.98,0.00,0.00,508.00
"USC00508648","1965-01-07",-2.92,-9.94,0.00,0.00,508.00
"USC00508648","1965-01-08",1.04,-7.96,0.00,0.00,508.00
"USC00508648","1965-01-09",-0.04,-7.06,0.00,0.00,508.00
"USC00508648","1965-01-10",3.02,-4.00,0.00,0.00,508.00
"USC00508648","1965-01-11",17.96,-0.04,0.00,0.00,508.00
"USC00508648","1965-01-12",33.08,14.00,5.00,25.00,508.00
"USC00508648","1965-01-13",39.02,24.08,0.00,0.00,508.00
"USC00508648","1965-01-14",35.96,24.08,135.00,254.00,762.00
"USC00508648","1965-01-15",26.06,8.96,0.00,8.00,711.00
"USC00508648","1965-01-16",,,0.00,0.00,
"USC00508648","1965-01-17",42.98,8.06,0.00,0.00,635.00
"USC00508648","1965-01-18",44.06,33.98,147.00,0.00,
"USC00508648","1965-01-19",41.00,33.98,0.00,0.00,508.00
"USC00508648","1965-01-20",39.02,30.92,0.00,0.00,508.00
"USC00508648","1965-01-21",35.06,28.94,0.00,0.00,483.00
"USC00508648","1965-01-22",33.98,28.04,0.00,0.00,483.00
"USC00508648","1965-01-23",32.00,26.06,0.00,0.00,483.00
"USC00508648","1965-01-24",26.96,15.98,0.00,0.00,483.00
"USC00508648","1965-01-25",17.96,6.98,0.00,0.00,483.00
"USC00508648","1965-01-26",14.00,1.94,0.00,0.00,483.00
"USC00508648","1965-01-27",8.06,3.02,0.00,0.00,483.00
"USC00508648","1965-01-28",6.98,-2.92,0.00,0.00,483.00
"USC00508648","1965-01-29",8.06,-2.92,0.00,0.00,483.00
"USC00508648","1965-01-30",15.08,6.08,3.00,25.00,508.00
"USC00508648","1965-01-31",14.00,6.98,0.00,0.00,508.00
"USC00508648","1965-02-01",19.04,12.02,0.00,0.00,508.00
"USC00508648","1965-02-02",19.04,10.04,0.00,0.00,508.00
"USC00508648","1965-02-03",10.94,3.02,0.00,0.00,508.00
"USC00508648","1965-02-04",5.00,-2.02,0.00,0.00,508.00
"USC00508648","1965-02-05",5.00,-2.92,0.00,0.00,508.00
"USC00508648","1965-02-06",8.06,3.02,38.00,114.00,635.00
"USC00508648","1965-02-07",15.08,1.94,3.00,0.00,610.00
"USC00508648","1965-02-08",28.94,10.94,3.00,8.00,610.00
"USC00508648","1965-02-09",33.98,12.02,0.00,0.00,584.00
"USC00508648","1965-02-10",33.08,28.04,8.00,13.00,584.00
"USC00508648","1965-02-11",33.08,19.94,0.00,0.00,584.00
"USC00508648","1965-02-12",30.92,23.00,81.00,160.00,737.00
"USC00508648","1965-02-13",26.06,8.96,5.00,20.00,737.00
"USC00508648","1965-02-14",12.02,5.00,5.00,13.00,711.00
"USC00508648","1965-02-15",10.04,5.00,3.00,5.00,711.00
"USC00508648","1965-02-16",8.96,-0.04,0.00,0.00,686.00
"USC00508648","1965-02-17",6.08,-2.92,0.00,0.00,686.00
"USC00508648","1965-02-18",1.94,-7.06,0.00,0.00,686.00
"USC00508648","1965-02-19",5.00,-5.08,0.00,0.00,686.00
"USC00508648","1965-02-20",,,0.00,0.00,
"USC00508648","1965-02-21",3.02,-2.92,0.00,0.00,660.00
"USC00508648","1965-02-22",17.96,1.94,0.00,0.00,635.00
"USC00508648","1965-02-23",26.06,12.92,0.00,0.00,635.00
"USC00508648","1965-02-24",28.04,17.96,0.00,0.00,635.00
"USC00508648","1965-02-25",24.08,10.94,0.00,0.00,635.00
"USC00508648","1965-02-26",21.02,10.04,0.00,0.00,635.00
"USC00508648","1965-02-27",17.96,1.94,0.00,0.00,635.00
"USC00508648","1965-02-28",17.06,5.00,0.00,0.00,635.00
"USC00508648","1965-03-01",37.94,15.08,5.00,0.00,635.00
"USC00508648","1965-03-02",37.94,24.98,3.00,0.00,610.00
"USC00508648","1965-03-03",42.08,33.08,0.00,0.00,610.00
"USC00508648","1965-03-04",37.94,33.98,0.00,0.00,610.00
"USC00508648","1965-03-05",42.98,32.00,0.00,0.00,610.00
"USC00508648","1965-03-06",41.00,33.98,0.00,0.00,584.00
"USC00508648","1965-03-07",39.92,30.02,3.00,0.00,584.00
"USC00508648","1965-03-08",46.04,33.08,0.00,0.00,559.00
"USC00508648","1965-03-09",48.92,37.94,0.00,0.00,508.00
"USC00508648","1965-03-10",41.00,33.08,58.00,0.00,483.00
"USC00508648","1965-03-11",48.02,35.06,0.00,0.00,432.00
"USC00508648","1965-03-12",41.00,30.92,3.00,0.00,406.00
"USC00508648","1965-03-13",35.96,19.94,0.00,0.00,406.00
"USC00508648","1965-03-14",26.06,15.08,0.00,0.00,406.00
"USC00508648","1965-03-15",23.00,10.04,0.00,0.00,406.00
"USC00508648","1965-03-16",26.06,10.94,0.00,0.00,406.00
"USC00508648","1965-03-17",32.00,19.94,0.00,0.00,406.00
"USC00508648","1965-03-18",33.08,24.08,0.00,0.00,406.00
"USC00508648","1965-03-19",42.98,23.00,0.00,0.00,406.00
"USC00508648","1965-03-20",39.92,30.92,18.00,0.00,381.00
"USC00508648","1965-03-21",46.04,33.98,0.00,0.00,305.00
"USC00508648","1965-03-22",48.02,37.04,0.00,0.00,279.00
"USC00508648","1965-03-23",42.98,35.96,0.00,0.00,254.00
"USC00508648","1965-03-24",42.08,35.06,13.00,0.00,229.00
"USC00508648","1965-03-25",39.92,35.96,0.00,0.00,203.00
"USC00508648","1965-03-26",37.94,35.06,0.00,0.00,203.00
"USC00508648","1965-03-27",37.04,33.08,0.00,0.00,178.00
"USC00508648","1965-03-28",39.92,32.00,0.00,0.00,178.00
"USC00508648","1965-03-29",39.02,30.92,0.00,0.00,178.00
"USC00508648","1965-03-30",37.94,30.02,0.00,0.00,152.00
"USC00508648","1965-03-31",37.94,30.02,0.00,0.00,127.00
"USC00508648","1965-04-01",35.96,26.96,10.00,0.00,127.00
"USC00508648","1965-04-02",39.92,30.02,0.00,0.00,127.00
"USC00508648","1965-04-03",39.92,32.00,0.00,0.00,127.00
"USC00508648","1965-04-04",39.02,26.96,0.00,0.00,127.00
"USC00508648","1965-04-05",39.92,30.92,0.00,0.00,127.00
"USC00508648","1965-04-06",35.06,30.02,0.00,0.00,127.00
"USC00508648","1965-04-07",39.92,21.02,0.00,0.00,102.00
"USC00508648","1965-04-08",33.98,28.04,0.00,0.00,102.00
"USC00508648","1965-04-09",41.00,30.02,,8.00,102.00
"USC00508648","1965-04-10",41.00,24.98,0.00,0.00,102.00
"USC00508648","1965-04-11",35.06,19.94,76.00,102.00,203.00
"USC00508648","1965-04-12",35.96,12.92,0.00,0.00,178.00
"USC00508648","1965-04-13",42.08,21.92,0.00,0.00,127.00
"USC00508648","1965-04-14",46.94,28.04,0.00,0.00,102.00
"USC00508648","1965-04-15",53.96,35.06,0.00,0.00,76.00
"USC00508648","1965-04-16",53.96,35.96,0.00,0.00,0.00
"USC00508648","1965-04-17",57.92,35.06,0.00,0.00,0.00
"USC00508648","1965-04-18",55.94,37.04,0.00,0.00,0.00
"USC00508648","1965-04-19",51.98,33.98,0.00,0.00,0.00
"USC00508648","1965-04-20",46.04,24.08,0.00,0.00,0.00
"USC00508648","1965-04-21",39.92,21.02,0.00,0.00,0.00
"USC00508648","1965-04-22",35.06,17.96,0.00,0.00,0.00
"USC00508648","1965-04-23",42.98,26.96,0.00,0.00,0.00
"USC00508648","1965-04-24",42.98,28.94,0.00,0.00,0.00
"USC00508648","1965-04-25",50.00,30.02,0.00,0.00,0.00
"USC00508648","1965-04-26",44.96,35.06,0.00,0.00,0.00
"USC00508648","1965-04-27",46.04,30.02,0.00,0.00,0.00
"USC00508648","1965-04-28",48.02,32.00,0.00,0.00,0.00
"USC00508648","1965-04-29",42.08,28.94,5.00,0.00,0.00
"USC00508648","1965-04-30",39.92,28.94,0.00,0.00,0.00
"USC00508648","1965-05-01",42.98,33.98,0.00,0.00,0.00
"USC00508648","1965-05-02",51.08,32.00,0.00,0.00,0.00
"USC00508648","1965-05-03",42.98,21.92,107.00,102.00,102.00
"USC00508648","1965-05-04",35.96,12.02,5.00,0.00,0.00
"USC00508648","1965-05-05",39.02,19.94,13.00,0.00,0.00
"USC00508648","1965-05-06",,,0.00,0.00,0.00
"USC00508648","1965-05-07",44.96,30.02,0.00,0.00,0.00
"USC00508648","1965-05-08",44.96,28.04,0.00,0.00,0.00
"USC00508648","1965-05-09",42.98,26.06,0.00,0.00,0.00
"USC00508648","1965-05-10",48.02,24.98,0.00,0.00,0.00
"USC00508648","1965-05-11",42.98,28.04,15.00,0.00,0.00
"USC00508648","1965-05-12",46.94,30.02,8.00,0.00,0.00
"USC00508648","1965-05-13",46.04,30.02,0.00,0.00,0.00
"USC00508648","1965-05-14",44.96,30.02,3.00,0.00,0.00
"USC00508648","1965-05-15",51.08,28.94,0.00,0.00,0.00
"USC00508648","1965-05-16",53.96,28.94,0.00,0.00,0.00
"USC00508648","1965-05-17",57.92,35.06,0.00,0.00,0.00
"USC00508648","1965-05-18",55.04,35.96,0.00,0.00,0.00
"USC00508648","1965-05-19",50.00,30.02,0.00,0.00,0.00
"USC00508648","1965-05-20",55.04,35.06,0.00,0.00,0.00
"USC00508648","1965-05-21",50.00,37.94,0.00,0.00,0.00
"USC00508648","1965-05-22",51.98,37.94,0.00,0.00,0.00
"USC00508648","1965-05-23",48.02,33.98,0.00,0.00,0.00
"USC00508648","1965-05-24",57.92,37.04,0.00,0.00,0.00
"USC00508648","1965-05-25",57.92,39.92,0.00,0.00,0.00
"USC00508648","1965-05-26",59.00,42.98,0.00,0.00,0.00
"USC00508648","1965-05-27",57.92,42.98,0.00,0.00,0.00
"USC00508648","1965-05-28",59.00,44.96,0.00,0.00,0.00
"USC00508648","1965-05-29",55.94,39.92,0.00,0.00,0.00
"USC00508648","1965-05-30",53.96,42.98,0.00,0.00,0.00
"USC00508648","1965-05-31",48.02,39.02,,0.00,0.00
"USC00508648","1965-06-01",57.02,35.96,,0.00,0.00
"USC00508648","1965-06-02",55.04,35.96,0.00,0.00,0.00
"USC00508648","1965-06-03",55.04,39.92,0.00,0.00,0.00
"USC00508648","1965-06-04",51.98,37.04,0.00,0.00,0.00
"USC00508648","1965-06-05",55.94,35.06,0.00,0.00,0.00
"USC00508648","1965-06-06",51.08,39.92,0.00,0.00,0.00
"USC00508648","1965-06-07",57.02,39.02,0.00,0.00,0.00
"USC00508648","1965-06-08",53.06,37.94,0.00,0.00,0.00
"USC00508648","1965-06-09",57.92,42.98,0.00,0.00,0.00
"USC00508648","1965-06-10",55.94,37.94,0.00,0.00,0.00
"USC00508648","1965-06-11",53.96,39.02,0.00,0.00,0.00
"USC00508648","1965-06-12",50.00,41.00,36.00,0.00,0.00
"USC00508648","1965-06-13",48.92,39.92,33.00,0.00,0.00
"USC00508648","1965-06-14",55.94,39.02,0.00,0.00,0.00
"USC00508648","1965-06-15",59.00,41.00,8.00,0.00,0.00
"USC00508648","1965-06-16",57.02,42.08,0.00,0.00,0.00
"USC00508648","1965-06-17",55.04,41.00,0.00,0.00,0.00
"USC00508648","1965-06-18",55.04,41.00,0.00,0.00,0.00
"USC00508648","1965-06-19",53.96,39.02,3.00,0.00,0.00
"USC00508648","1965-06-20",51.08,37.94,246.00,0.00,0.00
"USC00508648","1965-06-21",48.92,42.08,3.00,0.00,0.00
"USC00508648","1965-06-22",48.92,39.92,13.00,0.00,0.00
"USC00508648","1965-06-23",60.08,37.94,0.00,0.00,0.00
"USC00508648","1965-06-24",57.02,44.96,0.00,0.00,0.00
"USC00508648","1965-06-25",55.94,42.98,0.00,0.00,0.00
"USC00508648","1965-06-26",57.02,48.92,0.00,0.00,0.00
"USC00508648","1965-06-27",57.92,42.98,0.00,0.00,0.00
"USC00508648","1965-06-28",62.06,41.00,0.00,0.00,0.00
"USC00508648","1965-06-29",57.92,44.06,0.00,0.00,0.00
"USC00508648","1965-06-30",55.04,42.98,0.00,0.00,0.00
"USC00508648","1965-07-01",57.92,42.98,61.00,0.00,0.00
"USC00508648","1965-07-02",66.92,39.92,0.00,0.00,0.00
"USC00508648","1965-07-03",59.00,44.06,0.00,0.00,0.00
"USC00508648","1965-07-04",57.02,42.08,0.00,0.00,0.00
"USC00508648","1965-07-05",53.06,44.96,0.00,0.00,0.00
"USC00508648","1965-07-06",62.96,44.06,0.00,0.00,0.00
"USC00508648","1965-07-07",68.00,46.04,0.00,0.00,0.00
"USC00508648","1965-07-08",62.96,48.92,0.00,0.00,0.00
"USC00508648","1965-07-09",57.92,48.02,46.00,0.00,0.00
"USC00508648","1965-07-10",69.08,53.06,0.00,0.00,0.00
"USC00508648","1965-07-11",64.94,53.06,0.00,0.00,0.00
"USC00508648","1965-07-12",62.96,51.98,20.00,0.00,0.00
"USC00508648","1965-07-13",62.96,50.00,8.00,0.00,0.00
"USC00508648","1965-07-14",57.02,46.04,3.00,0.00,0.00
"USC00508648","1965-07-15",59.00,44.96,0.00,0.00,0.00
"USC00508648","1965-07-16",57.92,46.04,0.00,0.00,0.00
"USC00508648","1965-07-17",55.04,44.96,10.00,0.00,0.00
"USC00508648","1965-07-18",53.06,42.98,155.00,0.00,0.00
"USC00508648","1965-07-19",55.04,42.08,23.00,0.00,0.00
"USC00508648","1965-07-20",53.96,44.06,10.00,0.00,0.00
"USC00508648","1965-07-21",55.04,42.98,3.00,0.00,0.00
"USC00508648","1965-07-22",60.98,46.04,0.00,0.00,0.00
"USC00508648","1965-07-23",57.92,44.96,3.00,0.00,0.00
"USC00508648","1965-07-24",53.06,42.08,10.00,0.00,0.00
"USC00508648","1965-07-25",57.02,39.92,3.00,0.00,0.00
"USC00508648","1965-07-26",73.04,42.98,0.00,0.00,0.00
"USC00508648","1965-07-27",69.98,51.08,0.00,0.00,0.00
"USC00508648","1965-07-28",66.02,50.00,0.00,0.00,0.00
"USC00508648","1965-07-29",69.08,51.08,0.00,0.00,0.00
"USC00508648","1965-07-30",71.96,51.98,0.00,0.00,0.00
"USC00508648","1965-07-31",64.94,53.06,0.00,0.00,0.00
"USC00508648","1965-08-01",64.94,48.02,0.00,0.00,0.00
"USC00508648","1965-08-02",60.08,48.02,20.00,0.00,0.00
"USC00508648","1965-08-03",53.96,44.06,41.00,0.00,0.00
"USC00508648","1965-08-04",53.06,44.96,0.00,0.00,0.00
"USC00508648","1965-08-05",60.08,42.98,0.00,0.00,0.00
"USC00508648","1965-08-06",60.08,46.94,0.00,0.00,0.00
"USC00508648","1965-08-07",68.00,46.04,0.00,0.00,0.00
"USC00508648","1965-08-08",60.98,50.00,0.00,0.00,0.00
"USC00508648","1965-08-09",60.08,50.00,122.00,0.00,0.00
"USC00508648","1965-08-10",55.94,46.94,10.00,0.00,0.00
"USC00508648","1965-08-11",60.08,41.00,0.00,0.00,0.00
"USC00508648","1965-08-12",57.02,44.06,13.00,0.00,0.00
"USC00508648","1965-08-13",53.96,44.06,69.00,0.00,0.00
"USC00508648","1965-08-14",53.96,42.98,127.00,0.00,0.00
"USC00508648","1965-08-15",57.92,42.98,0.00,0.00,0.00
"USC00508648","1965-08-16",57.02,42.98,48.00,0.00,0.00
"USC00508648","1965-08-17",60.08,42.08,10.00,0.00,0.00
"USC00508648","1965-08-18",62.06,46.94,0.00,0.00,0.00
"USC00508648","1965-08-19",62.96,44.96,0.00,0.00,0.00
"USC00508648","1965-08-20",55.94,42.98,0.00,0.00,0.00
"USC00508648","1965-08-21",57.02,46.04,0.00,0.00,0.00
"USC00508648","1965-08-22",55.04,44.96,0.00,0.00,0.00
"USC00508648","1965-08-23",50.00,42.08,64.00,0.00,0.00
"USC00508648","1965-08-24",55.04,37.94,15.00,0.00,0.00
"USC00508648","1965-08-25",55.94,35.06,0.00,0.00,0.00
"USC00508648","1965-08-26",53.96,41.00,0.00,0.00,0.00
"USC00508648","1965-08-27",57.02,39.02,0.00,0.00,0.00
"USC00508648","1965-08-28",60.08,42.08,0.00,0.00,0.00
"USC00508648","1965-08-29",57.92,42.08,0.00,0.00,0.00
"USC00508648","1965-08-30",57.02,35.06,0.00,0.00,0.00
"USC00508648","1965-08-31",59.00,41.00,0.00,0.00,0.00
"USC00508648","1965-09-01",55.94,44.06,28.00,0.00,0.00
"USC00508648","1965-09-02",55.94,42.08,0.00,0.00,0.00
"USC00508648","1965-09-03",55.94,44.06,0.00,0.00,0.00
"USC00508648","1965-09-04",57.92,46.94,8.00,0.00,0.00
"USC00508648","1965-09-05",59.00,51.08,51.00,0.00,0.00
"USC00508648","1965-09-06",,,,0.00,0.00
"USC00508648","1965-09-07",60.98,42.08,,0.00,0.00